Visalia, CA

6:30 AM PDT on October 17, 2019 (GMT -0700)
Visalia Municipal

Weather History for KVIS - August, 2019

Change the Weather History Date:

Thursday, August 15, 2019

  Actual Average Record
Temperature  
Mean Temperature 85 °F -  
Max Temperature 104 °F 91 °F 106 °F (1931)
Min Temperature 66 °F 63 °F 51 °F (1954)
Cooling Degree Days 20    
Growing Degree Days 35 (Base 50)    
Moisture  
Dew Point 60 °F    
Average Humidity 50    
Maximum Humidity 87    
Minimum Humidity 16    
Precipitation  
Precipitation 0.00 in - - ()
Sea Level Pressure  
Sea Level Pressure 29.89 in    
Wind  
Wind Speed 4 mph (SSW)    
Max Wind Speed 9 mph    
Max Gust Speed -    
Visibility 10 miles    
Events      
Averages and records for this station are not official NWS values.
T = Trace of Precipitation, MM = Missing Value Source: NWS Daily Summary

Daily Weather History Graph

Daily Weather History Graph

Search for Another Location

Airport or City:

Astronomy

Aug. 15, 2019 Rise Set
Actual Time 6:15 AM PDT 7:48 PM PDT
Civil Twilight 5:48 AM PDT 8:15 PM PDT
Nautical Twilight 5:15 AM PDT 8:48 PM PDT
Astronomical Twilight 4:40 AM PDT 9:22 PM PDT
Moon 8:18 PM PDT (8/15) 6:15 AM PDT (8/15)
Length of Visible Light 14h 27m
Length of Day
13h 32m
Full, 100% of the Moon is Illuminated
Aug 15
Full
Aug 23
Last Quarter
Aug 30
New
Sep 5
First Quarter
Sep 13
Full

Hourly Weather History & Observations

Time (PDT) Temp. Heat Index Dew Point Humidity Pressure Visibility Wind Dir Wind Speed Gust Speed Precip Events Conditions
12:56 AM 72.0 °F - 62.1 °F 71% 29.93 in 10.0 mi East 3.5 mph - N/A   Clear
1:56 AM 72.0 °F - 61.0 °F 68% 29.92 in 10.0 mi SE 3.5 mph - N/A   Clear
2:56 AM 70.0 °F - 62.1 °F 76% 29.92 in 10.0 mi ESE 3.5 mph - N/A   Clear
3:56 AM 68.0 °F - 64.0 °F 87% 29.92 in 10.0 mi SSE 3.5 mph - N/A   Clear
4:56 AM 68.0 °F - 64.0 °F 87% 29.93 in 10.0 mi ESE 4.6 mph - N/A   Clear
5:56 AM 66.9 °F - 62.1 °F 84% 29.94 in 10.0 mi SE 3.5 mph - N/A   Clear
6:56 AM 66.9 °F - 62.1 °F 84% 29.95 in 9.0 mi SSE 4.6 mph - N/A   Clear
7:56 AM 73.0 °F - 61.0 °F 66% 29.96 in 10.0 mi South 4.6 mph - N/A   Clear
8:56 AM 78.1 °F - 60.1 °F 54% 29.96 in 10.0 mi SE 3.5 mph - N/A   Clear
9:56 AM 82.9 °F 82.8 °F 59.0 °F 44% 29.96 in 10.0 mi SSE 4.6 mph - N/A   Clear
10:56 AM 86.0 °F 86.1 °F 61.0 °F 43% 29.96 in 10.0 mi SSW 5.8 mph - N/A   Clear
11:56 AM 91.0 °F 90.9 °F 61.0 °F 36% 29.94 in 10.0 mi SW 4.6 mph - N/A   Clear
12:56 PM 95.0 °F 94.0 °F 57.9 °F 29% 29.91 in 10.0 mi Variable 5.8 mph - N/A   Clear
1:56 PM 98.1 °F 98.1 °F 60.1 °F 28% 29.89 in 10.0 mi West 4.6 mph - N/A   Clear
2:56 PM 100.9 °F 102.1 °F 61.0 °F 27% 29.87 in 10.0 mi NW 6.9 mph - N/A   Clear
3:56 PM 102.0 °F 102.2 °F 59.0 °F 24% 29.85 in 10.0 mi West 9.2 mph - N/A   Clear
4:56 PM 104.0 °F - 48.9 °F 16% 29.83 in 10.0 mi NNW 8.1 mph - N/A   Clear
5:56 PM 102.9 °F 100.9 °F 53.1 °F 19% 29.81 in 10.0 mi North 9.2 mph - N/A   Clear
6:56 PM 100.9 °F 99.1 °F 54.0 °F 21% 29.80 in 10.0 mi NNW 9.2 mph - N/A   Clear
7:56 PM 91.9 °F 92.9 °F 63.0 °F 38% 29.81 in 10.0 mi West 6.9 mph - N/A   Clear
8:56 PM 86.0 °F 86.3 °F 62.1 °F 44% 29.82 in 10.0 mi West 4.6 mph - N/A   Clear
9:56 PM 84.9 °F 85.0 °F 61.0 °F 44% 29.83 in 10.0 mi WNW 3.5 mph - N/A   Clear
10:56 PM 82.0 °F 82.4 °F 60.1 °F 47% 29.83 in 10.0 mi Calm Calm - N/A   Clear
11:56 PM 77.0 °F - 62.1 °F 60% 29.84 in 10.0 mi Calm Calm - N/A   Clear